This demonstration page uses our WeatherBlox Daily Observations layout. Learn more.

Left ArrowRight Arrow

39.01783, -85.05884

Hourly Observations for September 11, 2021

Temp ( °F °C ) Dew Point ( °F °C ) Humidity (%) Winds ( mph kmh ) Pressure ( in mb ) Visibility ( mi km ) Precip ( " mm )
12:52 am 00:52 Partly Cloudy 63 17.2 51 10.6 65 65 S 7 11 30.11 1020 10 16 0.00 0.00
1:52 am 01:52 Partly Cloudy 62 16.7 51 10.6 67 67 S 7 11 30.10 1019 10 16 0.00 0.00
2:52 am 02:52 Clear 60 15.6 51 10.6 72 72 S 7 11 30.10 1019 10 16 0.00 0.00
3:52 am 03:52 Clear 60 15.6 51 10.6 72 72 S 8 13 30.10 1019 10 16 0.00 0.00
4:52 am 04:52 Clear 60 15.6 51 10.6 72 72 SSW 7 11 30.10 1019 10 16 0.00 0.00
5:52 am 05:52 Mostly Cloudy 57 13.9 51 10.6 81 81 S 6 9 30.11 1020 10 16 0.00 0.00
6:52 am 06:52 Cloudy 59 15 52 11.1 78 78 S 8 13 30.12 1020 10 16 0.00 0.00
7:52 am 07:52 Mostly Cloudy 60 15.6 54 12.2 80 80 S 7 11 30.13 1020 10 16 0.00 0.00
8:52 am 08:52 Mostly Cloudy 64 17.8 55 12.8 73 73 S 9 15 30.14 1021 10 16 0.00 0.00
9:52 am 09:52 Mostly Cloudy 67 19.4 55 12.8 66 66 SSW 13 20 30.14 1021 10 16 0.00 0.00
10:52 am 10:52 Mostly Cloudy 70 21.1 56 13.3 61 61 S 13 20 30.14 1021 10 16 0.00 0.00
11:52 am 11:52 Mostly Sunny 74 23.3 57 13.9 56 56 SSW 17 28 30.12 1020 10 16 0.00 0.00
12:52 pm 12:52 Mostly Cloudy 76 24.4 57 13.9 52 52 SSW 16 26 30.11 1020 10 16 0.00 0.00
1:52 pm 13:52 Cloudy 77 25 57 13.9 50 50 SSW 15 24 30.10 1019 10 16 0.00 0.00
2:52 pm 14:52 Mostly Cloudy 80 26.7 59 15 49 49 SSW 16 26 30.07 1018 10 16 0.00 0.00
3:52 pm 15:52 Mostly Sunny 80 26.7 59 15 49 49 S 18 30 30.06 1018 10 16 0.00 0.00
4:52 pm 16:52 Sunny 80 26.7 60 15.6 51 51 SSW 15 24 30.05 1018 10 16 0.00 0.00
5:52 pm 17:52 Sunny 79 26.1 61 16.1 54 54 SSW 16 26 30.04 1017 10 16 0.00 0.00
6:52 pm 18:52 Sunny 77 25 60 15.6 56 56 SSW 13 20 30.04 1017 10 16 0.00 0.00
7:52 pm 19:52 Sunny 75 23.9 60 15.6 60 60 SSW 10 17 30.05 1018 10 16 0.00 0.00
8:52 pm 20:52 Clear 73 22.8 60 15.6 64 64 SSW 10 17 30.06 1018 10 16 0.00 0.00
9:52 pm 21:52 Clear 72 22.2 60 15.6 66 66 SSW 9 15 30.07 1018 10 16 0.00 0.00
10:52 pm 22:52 Clear 71 21.7 60 15.6 68 68 SSW 10 17 30.08 1019 10 16 0.00 0.00
11:52 pm 23:52 Mostly Clear 71 21.7 60 15.6 68 68 SSW 10 17 30.08 1019 10 16 0.00 0.00

Powered by AerisWeather